[[{"header":{"parameterUnit":"m.s-1","parameterCategory":1,"la1":30.2991,"la2":30.254,"lo1":-89.0895,"lo2":-89.0444,"dy":0.0017,"dx":0.0017,"nx":28,"ny":28,"refTime":"2024-07-03T09:00:00:Z","depth":0,"parameterNumber":2,"parameterNumberName":"U-component_of_WINDS"},"data":[0,0,0,0,0,0,0,0,0,0,0,0,0,0,0,0,0,0,0,0,0,0,0,0,0,0,0,0,0,0,0,0,0,0,0,0,0,0,0,0,0,0,0,0,0,0,0,0,0,0,0,0,0,0,0,0,0,0,3.9462,3.9463,0,3.9571,3.9573,3.9574,3.953,3.9527,3.9524,3.9522,3.9635,3.964,3.9645,0,0,0,0,0,0,0,0,0,0,0,0,0,3.9212,3.9217,3.9462,3.9463,3.9464,3.9571,3.9573,3.9574,3.953,3.9527,3.9524,3.9521,3.9633,3.9639,3.9646,0,0,0,0,0,0,0,0,0,0,0,0,0,3.9321,3.9219,3.9461,3.9455,3.9456,3.9571,3.9573,3.9574,3.9531,3.9527,3.9523,3.9519,3.9631,3.9639,3.9647,3.9774,0,0,3.9671,3.9675,0,0,0,0,0,0,0,0,3.9315,3.933,3.9455,3.9456,3.9457,3.9533,3.9526,3.9641,3.9532,3.9502,3.9522,3.9517,3.9604,3.9614,3.9643,3.9779,3.9784,3.9672,3.9677,3.968,3.9683,0,0,0,0,0,0,0,3.9308,3.9325,3.9505,3.9457,3.9458,3.9446,3.9458,3.9548,3.9573,3.9505,3.9502,3.9515,3.9604,3.9635,3.9645,3.9786,3.9672,3.9679,3.9684,3.9687,4.0028,4.0032,0,0,0,0,0,0,3.93,3.9319,3.9501,3.9508,3.9375,3.9454,3.9467,3.9512,3.9572,3.9578,3.9518,3.9513,3.9623,3.9636,3.9649,3.9799,3.968,3.9688,3.9693,4.0024,4.0029,4.0034,0,0,0,0,0,0,3.9295,3.9317,3.9497,3.9413,3.9435,3.9462,3.9514,3.9517,3.9548,3.9583,3.9587,3.9546,3.9621,3.9638,3.9742,3.9802,3.9692,3.9699,4.0019,4.0026,4.0032,4.0102,0,0,0,0,0,0,3.9288,3.9315,3.9364,3.9415,3.944,3.9589,3.9518,3.9521,3.9562,3.9556,3.961,3.9615,3.9619,3.9731,3.975,3.9812,3.9705,4.0014,4.0022,4.003,4.0095,4.011,4.0124,0,0,0,0,0,3.9279,3.9381,3.9367,3.9389,3.9502,3.9593,3.9607,3.961,3.9567,3.9616,3.9638,3.9613,3.9793,3.9742,3.9764,3.9828,4.001,4.002,4.0029,4.0088,4.0107,4.0123,0,0,0,0,0,0,3.9337,3.9387,3.9373,3.9494,3.9539,3.9585,3.9647,3.963,3.9689,3.968,3.9681,3.9694,3.9801,3.9826,3.9767,3.9953,3.9895,3.991,3.9933,3.9951,3.9965,3.9956,3.9712,0,0,0,0,0,3.9364,3.9434,3.9474,3.9577,3.96,3.962,3.966,3.9657,3.9705,3.9724,3.9754,3.98,3.9867,3.9911,3.9974,4.0099,4.0108,4.0154,4.0168,4.018,4.0191,4.0256,4.0275,4.0065,4.0065,4.0065,0,0,3.942,3.9456,3.9501,3.9589,3.9624,3.9695,3.9637,3.9715,3.9767,3.9736,3.9835,3.9859,3.9911,4.0025,4.0077,4.0049,4.0252,4.0192,4.0201,4.0206,4.0267,4.0287,4.0305,4.0071,4.007,4.0069,0,0,3.9558,3.9594,3.9682,3.9718,3.9771,3.9783,3.9804,3.9853,3.9867,3.9967,3.9944,4.0006,4.0122,4.0159,4.0193,4.0343,4.0321,4.0364,4.0438,4.0501,4.0517,4.0532,4.0582,4.06,4.0376,4.0376,4.0376,0,3.9621,3.9728,3.9729,3.9809,3.9847,3.9821,3.9909,3.9944,4.0016,4.0043,4.0011,4.0153,4.0187,4.0307,4.0343,4.0373,4.0395,4.0356,4.0515,4.053,4.0543,4.0591,4.061,4.0381,4.038,4.038,4.0379,0,3.98,3.9875,3.9939,4.0007,4.0054,4.0137,4.015,4.0197,4.019,4.0206,4.0306,4.0346,4.0415,4.0444,4.044,4.0564,4.0544,4.0514,4.0455,4.0568,4.0612,4.0631,4.0387,4.0385,4.0384,4.0383,0,0,3.9977,4.0044,4.0068,4.0097,4.0154,4.021,4.0292,4.0359,4.0398,4.0448,4.0515,4.0613,4.0584,4.0623,4.0622,4.0677,4.0789,4.064,4.0641,4.0663,4.0924,4.0944,4.0965,4.0776,4.078,4.0783,4.0919,0,4.0116,4.0259,4.0262,4.0392,4.0458,4.0435,4.0505,4.0547,4.0563,4.0622,4.064,4.0708,4.0667,4.0689,4.0743,4.0764,4.0841,4.0755,4.0836,4.0839,4.082,4.0989,4.1011,4.1138,4.0937,4.094,4.0942,0,4.0298,4.0352,4.0489,4.0533,4.0561,4.0625,4.0685,4.0742,4.0788,4.0796,4.0838,4.0829,4.091,4.0851,4.0962,4.0903,4.0937,4.0952,4.0957,4.0962,4.0895,4.0996,4.1179,4.1196,4.097,4.0968,4.0966,0,4.0408,4.0516,4.0611,4.0637,4.0692,4.0737,4.0762,4.0804,4.0844,4.0897,4.0922,4.0985,4.1018,4.1066,4.1073,4.103,4.1183,4.1126,4.119,4.119,4.1221,4.1218,4.1408,4.1249,4.1248,4.1248,4.1248,0,4.0561,4.0645,4.0661,4.0718,4.0811,4.0813,4.0904,4.0926,4.0963,4.1024,4.1009,4.1066,4.1073,4.1132,4.1138,4.1227,4.1244,4.125,4.125,4.125,4.1248,4.127,4.126,4.1253,4.1252,4.1251,4.125,0,4.0699,4.0714,4.0814,4.0858,4.0871,4.0936,4.0973,4.1027,4.1042,4.1119,4.1137,4.116,4.1228,4.124,4.1322,4.1325,4.143,4.1424,4.1414,4.1412,4.1474,4.1467,4.1682,4.1709,4.1535,4.1537,4.1538,0,4.0794,4.0858,4.0907,4.0946,4.0973,4.1037,4.1077,4.1082,4.1123,4.118,4.1227,4.1294,4.1346,4.1456,4.148,4.1541,4.1533,4.1604,4.1542,4.1538,4.153,4.1524,4.1529,4.1615,4.1617,4.1618,4.162,0,4.096,4.0964,4.1021,4.1081,4.1129,4.1176,4.1221,4.1254,4.1265,4.1312,4.1381,4.1422,4.1504,4.1569,4.163,4.1655,4.1638,4.1639,4.1657,4.1655,4.1646,4.1648,4.1443,4.1634,4.1632,4.1631,4.1631,4.163,4.1077,4.1131,4.1173,4.1237,4.1272,4.1313,4.1366,4.1386,4.1444,4.151,4.151,4.1585,4.1627,4.1707,4.1736,4.1793,4.1771,4.1797,4.1803,4.1808,4.1812,4.1639,4.1805,4.1805,4.1804,4.1804,4.1804,0,4.1239,4.1265,4.1324,4.1386,4.1436,4.1417,4.1465,4.1508,4.1574,4.1615,4.1667,4.1745,4.1808,4.1836,4.1897,4.1938,4.1932,4.1954,4.1949,4.1954,4.1831,4.1808,4.1958,4.1958,4.1957,4.1957,4.1957,4.1957,4.1328,4.1417,4.1426,4.1531,4.1556,4.1629,4.1657,4.1695,4.1728,4.1815,4.1867,4.1885,4.192,4.1984,4.204,4.2046,4.2068,4.2093,4.2096,4.1979,4.1964,4.1949,4.1927,4.2098,4.2099,4.2213,4.2214,4.2215]},{"header":{"parameterUnit":"m.s-1","parameterCategory":1,"la1":30.2991,"la2":30.254,"lo1":-89.0895,"lo2":-89.0444,"dy":0.0017,"dx":0.0017,"nx":28,"ny":28,"refTime":"2024-07-03T09:00:00:Z","depth":0,"parameterNumber":3,"parameterNumberName":"V-component_of_WINDS"},"data":[0,0,0,0,0,0,0,0,0,0,0,0,0,0,0,0,0,0,0,0,0,0,0,0,0,0,0,0,0,0,0,0,0,0,0,0,0,0,0,0,0,0,0,0,0,0,0,0,0,0,0,0,0,0,0,0,0,0,3.8124,3.8125,0,3.8197,3.8198,3.8199,3.8172,3.8171,3.8169,3.8167,3.8239,3.8243,3.8246,0,0,0,0,0,0,0,0,0,0,0,0,0,3.7957,3.796,3.8124,3.8125,3.8126,3.8197,3.8198,3.8199,3.8173,3.8171,3.8169,3.8167,3.8238,3.8242,3.8246,0,0,0,0,0,0,0,0,0,0,0,0,0,3.8029,3.7961,3.8123,3.8121,3.8122,3.8197,3.8198,3.8199,3.8173,3.8171,3.8168,3.8166,3.8237,3.8242,3.8247,3.8328,0,0,3.8263,3.8265,0,0,0,0,0,0,0,0,3.8025,3.8036,3.812,3.8121,3.8122,3.8173,3.8165,3.8242,3.8174,3.8153,3.8167,3.8165,3.8219,3.8226,3.8245,3.8331,3.8334,3.8263,3.8266,3.8269,3.827,0,0,0,0,0,0,0,3.802,3.8032,3.8153,3.8122,3.8123,3.8115,3.8123,3.818,3.8199,3.8155,3.8153,3.8162,3.8219,3.824,3.8246,3.8335,3.8263,3.8268,3.8271,3.8273,3.849,3.8492,0,0,0,0,0,0,3.8015,3.8028,3.815,3.8155,3.8067,3.812,3.8128,3.8159,3.8198,3.8202,3.8164,3.8161,3.8232,3.824,3.8249,3.8344,3.8269,3.8273,3.8276,3.8487,3.849,3.8493,0,0,0,0,0,0,3.8012,3.8027,3.8147,3.8091,3.8106,3.8125,3.816,3.8162,3.8183,3.8206,3.8208,3.8182,3.823,3.8241,3.8308,3.8346,3.8276,3.828,3.8484,3.8488,3.8492,3.8538,0,0,0,0,0,0,3.8007,3.8026,3.8058,3.8092,3.8109,3.8207,3.8163,3.8165,3.8192,3.8188,3.8223,3.8227,3.8229,3.8301,3.8313,3.8352,3.8284,3.8481,3.8486,3.8491,3.8533,3.8543,3.8551,0,0,0,0,0,3.8001,3.8067,3.8059,3.8074,3.815,3.8209,3.8219,3.8222,3.8195,3.8227,3.8241,3.8225,3.8341,3.8308,3.8322,3.8363,3.8478,3.8484,3.849,3.8529,3.8541,3.8551,0,0,0,0,0,0,3.8036,3.8072,3.8063,3.8143,3.8173,3.8205,3.8245,3.8235,3.8273,3.8268,3.8268,3.8277,3.8345,3.8361,3.8324,3.8442,3.8405,3.8414,3.8429,3.8441,3.845,3.8444,3.8289,0,0,0,0,0,3.8053,3.81,3.8128,3.8195,3.8211,3.8225,3.8252,3.8251,3.8282,3.8295,3.8314,3.8344,3.8387,3.8415,3.8456,3.8535,3.8541,3.857,3.8579,3.8587,3.8594,3.8635,3.8648,3.8513,3.8513,3.8513,0,0,3.8088,3.8114,3.8143,3.8203,3.8226,3.8273,3.8236,3.8288,3.8322,3.8302,3.8367,3.8382,3.8415,3.8488,3.8521,3.8503,3.8633,3.8594,3.86,3.8604,3.8643,3.8656,3.8667,3.8517,3.8516,3.8516,0,0,3.8176,3.8201,3.8259,3.8283,3.832,3.8329,3.8343,3.8376,3.8385,3.845,3.8435,3.8475,3.855,3.8573,3.8595,3.8691,3.8677,3.8704,3.8752,3.8792,3.8802,3.8812,3.8844,3.8856,3.8712,3.8712,3.8712,0,3.8215,3.8287,3.829,3.8342,3.8368,3.8353,3.841,3.8433,3.8481,3.8498,3.8478,3.857,3.8591,3.8668,3.8692,3.871,3.8725,3.87,3.8801,3.881,3.8819,3.885,3.8862,3.8715,3.8714,3.8714,3.8714,0,3.8332,3.8381,3.8423,3.847,3.8501,3.8555,3.8565,3.8595,3.8592,3.8603,3.8667,3.8693,3.8737,3.8756,3.8753,3.8833,3.882,3.8801,3.8763,3.8835,3.8864,3.8876,3.8719,3.8718,3.8717,3.8716,0,0,3.8444,3.8491,3.8506,3.8526,3.8565,3.8603,3.8656,3.87,3.8725,3.8759,3.8802,3.8864,3.8846,3.8871,3.887,3.8906,3.8977,3.8881,3.8882,3.8897,3.9064,3.9078,3.9092,3.8969,3.8971,3.8973,3.9061,0,3.8533,3.8628,3.8632,3.8717,3.8762,3.8748,3.8793,3.8821,3.8832,3.8871,3.8882,3.8926,3.8899,3.8914,3.8948,3.8962,3.9011,3.8955,3.9007,3.9009,3.8998,3.9107,3.9122,3.9204,3.9073,3.9074,3.9076,0,3.8651,3.8688,3.8778,3.8809,3.8828,3.887,3.891,3.8947,3.8977,3.8983,3.901,3.9004,3.9056,3.9018,3.9089,3.9051,3.9073,3.9082,3.9085,3.9089,3.9046,3.9113,3.923,3.9242,3.9094,3.9093,3.9091,0,3.8722,3.8794,3.8857,3.8875,3.8913,3.8942,3.8959,3.8987,3.9013,3.9048,3.9064,3.9105,3.9126,3.9157,3.9161,3.9133,3.9232,3.9194,3.9236,3.9236,3.9257,3.9255,3.9378,3.9273,3.9273,3.9273,3.9272,0,3.8821,3.8876,3.8889,3.8927,3.8988,3.8991,3.9051,3.9065,3.909,3.913,3.912,3.9158,3.9162,3.92,3.9203,3.926,3.9271,3.9275,3.9275,3.9275,3.9275,3.9289,3.9282,3.9276,3.9275,3.9274,3.9274,0,3.8909,3.8921,3.8988,3.9018,3.9027,3.907,3.9096,3.9132,3.9141,3.9192,3.9204,3.9219,3.9263,3.927,3.9322,3.9324,3.9392,3.9387,3.9382,3.9381,3.9422,3.9418,3.9557,3.9575,3.946,3.9461,3.9462,0,3.8971,3.9014,3.9049,3.9075,3.9093,3.9136,3.9163,3.9167,3.9194,3.9232,3.9263,3.9306,3.934,3.9411,3.9426,3.9465,3.946,3.9506,3.9465,3.9464,3.9458,3.9455,3.9459,3.9513,3.9514,3.9516,3.9516,0,3.908,3.9083,3.9122,3.9163,3.9195,3.9227,3.9257,3.9279,3.9287,3.9318,3.9364,3.939,3.9443,3.9486,3.9524,3.954,3.9529,3.9529,3.9541,3.9541,3.9535,3.9537,3.9402,3.9526,3.9525,3.9524,3.9524,3.9523,3.9156,3.9192,3.9222,3.9265,3.9289,3.9317,3.9352,3.9366,3.9404,3.9448,3.9448,3.9497,3.9525,3.9576,3.9594,3.9631,3.9616,3.9633,3.9637,3.9641,3.9644,3.9531,3.9638,3.9638,3.9638,3.9638,3.9638,0,3.9262,3.928,3.932,3.9363,3.9397,3.9385,3.9418,3.9446,3.949,3.9517,3.9551,3.9603,3.9643,3.9661,3.9701,3.9727,3.9723,3.9737,3.9734,3.9738,3.9656,3.9642,3.974,3.974,3.974,3.974,3.974,3.974,3.9321,3.9381,3.9388,3.9458,3.9476,3.9525,3.9544,3.957,3.9591,3.9649,3.9683,3.9695,3.9718,3.9759,3.9795,3.9799,3.9813,3.983,3.9831,3.9754,3.9744,3.9734,3.972,3.9833,3.9833,3.9909,3.991,3.9911]}]]